This is the latest recevied weather packets stored in our database for station/object N1ICS-1. If no packets are shown the sender has not sent any weather packets the latest 10 day(s).
| Time | Temp. | Humidity | Pressure | Rain* | Wind** | Luminosity | Snow |
|---|---|---|---|---|---|---|---|
| 1777971603 | 13.33° C | 94% | 1006.1 hPa | 0 mm | - | 0 W/m² | - |
| 1777971301 | 13.33° C | 94% | 1006.2 hPa | 0 mm | - | 0 W/m² | - |
| 1777971003 | 13.33° C | 94% | 1006 hPa | 0 mm | - | 0 W/m² | - |
| 1777970706 | 13.33° C | 94% | 1006.2 hPa | 0 mm | - | 0 W/m² | - |
| 1777970403 | 13.33° C | 94% | 1006.3 hPa | 0 mm | - | 0 W/m² | - |
| 1777970102 | 13.33° C | 94% | 1006.5 hPa | 0 mm | - | 0 W/m² | - |
| 1777969802 | 13.33° C | 93% | 1006.3 hPa | 0 mm | - | 0 W/m² | - |
| 1777969501 | 13.89° C | 92% | 1006 hPa | 0 mm | - | 0 W/m² | - |
| 1777969202 | 13.33° C | 95% | 1005.8 hPa | 0 mm | - | 0 W/m² | - |
| 1777968903 | 13.33° C | 95% | 1005.6 hPa | 0 mm | - | 0 W/m² | - |
| 1777968602 | 13.33° C | 95% | 1005.7 hPa | 0 mm | - | 0 W/m² | - |
| 1777968302 | 13.33° C | 95% | 1005.7 hPa | 0 mm | - | 0 W/m² | - |
| 1777968004 | 13.33° C | 95% | 1005.9 hPa | 0 mm | - | 0 W/m² | - |
| 1777967703 | 13.33° C | 95% | 1005.9 hPa | 0 mm | - | 0 W/m² | - |
| 1777967403 | 13.33° C | 96% | 1006.2 hPa | 0 mm | - | 0 W/m² | - |
| 1777967101 | 13.33° C | 96% | 1006.1 hPa | 1.78 mm | - | 0 W/m² | - |
| 1777966802 | 13.33° C | 95% | 1005.9 hPa | 3.56 mm | - | 0 W/m² | - |
| 1777966502 | 13.33° C | 96% | 1006.2 hPa | 2.79 mm | - | 0 W/m² | - |
| 1777966202 | 13.33° C | 95% | 1006.3 hPa | 2.79 mm | - | 0 W/m² | - |
| 1777965902 | 13.89° C | 94% | 1006.6 hPa | 2.29 mm | - | 0 W/m² | - |
| 1777965603 | 13.89° C | 92% | 1007 hPa | 1.02 mm | - | 0 W/m² | - |
| 1777965302 | 14.44° C | 90% | 1007 hPa | 0 mm | - | 0 W/m² | - |
| 1777965002 | 15° C | 86% | 1007 hPa | 0 mm | - | 0 W/m² | - |
| 1777964702 | 15° C | 85% | 1007 hPa | 0 mm | - | 0 W/m² | - |
| 1777964402 | 15.56° C | 82% | 1006.9 hPa | 0 mm | - | 0 W/m² | - |
* Rain latest hour (hover to see other rain measurements)
** Current wind speed in m/s (hover to see current wind gust speed)